Bouzas — EAPC — position and weather

sailwx.info

Track history (hours):
 
Tides and Currents Weather Stations Pressure Air Temp Water Temp Dewpoint Dewpoint Depression Visibility Wind Speed Wind Dir Waves Ship Positions

Bouzas

Last reported at 2014-Oct-19 09:33 UTC. Time now 2014-Oct-21 03:51 UTC.
Position N 32°40' W 010°08'.

Length 142 m; draft 5.6 m.

Type: Cargo ship. MMSI: 224029000.

Date/timePositionNaut miles runAvg speedWind from/ knotsBaromVisibWave heightAir tempDewpointWater temp
2014-Oct-19 09:33N 32°40' W 010°08'1918.7
2014-Oct-19 08:34N 32°54' W 009°53'1918.7
2014-Oct-19 07:33N 33°07' W 009°37'6318.6
2014-Oct-19 04:11N 33°52' W 008°44'1218.7
2014-Oct-19 03:34N 34°00' W 008°35'1918.5
2014-Oct-19 02:33N 34°14' W 008°19'1818.4
2014-Oct-19 01:33N 34°26' W 008°03'1818.2
2014-Oct-19 00:33N 34°39' W 007°47'1818.3
2014-Oct-18 23:33N 34°52' W 007°31'1818.2
2014-Oct-18 22:33N 35°05' W 007°16'1918.5
2014-Oct-18 21:33N 35°18' W 007°00'2018.3
2014-Oct-18 20:26N 35°32' W 006°41'2018.7
2014-Oct-18 19:21N 35°43' W 006°21'3918.5
2014-Oct-18 17:13N 35°58' W 005°36'1116.7
2014-Oct-18 16:34N 36°02' W 005°23'19417.4
2014-Oct-18 05:24N 36°55' W 001°30'1719.3
2014-Oct-18 04:32N 37°06' W 001°14'1918.8
2014-Oct-18 03:33N 37°18' W 000°57'1919.4
2014-Oct-18 02:33N 37°30' W 000°39'2019.3
2014-Oct-18 01:32N 37°46' W 000°24'1919.4
2014-Oct-18 00:32N 38°02' W 000°10'2019.6
2014-Oct-17 23:31N 38°19' E 000°03'2019.1
2014-Oct-17 22:27N 38°36' E 000°18'1719.2
2014-Oct-17 21:33N 38°51' E 000°29'1919.0
2014-Oct-17 20:33N 39°08' E 000°41'2019.0
2014-Oct-17 19:32N 39°25' E 000°53'1919.0
2014-Oct-17 18:33N 39°41' E 001°04'1919.0
2014-Oct-17 17:33N 39°58' E 001°16'1919.4
2014-Oct-17 16:33N 40°15' E 001°29'1919.2
2014-Oct-17 15:33N 40°32' E 001°41'1919.0
2014-Oct-17 14:33N 40°48' E 001°53'1919.1
2014-Oct-17 13:33N 41°05' E 002°05'1616.4
2014-Oct-17 12:33N 41°20' E 002°12'2 1.2
2014-Oct-17 11:07N 41°22' E 002°11'0 0.0
2014-Oct-17 04:31N 41°22' E 002°11'8 8.1
2014-Oct-17 03:33N 41°17' E 002°19'1010.0
2014-Oct-17 02:33N 41°11' E 002°09'1110.9
2014-Oct-17 01:33N 41°01' E 002°03'1111.0
2014-Oct-17 00:33N 40°51' E 001°56'1111.3
2014-Oct-16 23:33N 40°41' E 001°49'1111.2
2014-Oct-16 22:33N 40°31' E 001°42'1111.1
2014-Oct-16 21:33N 40°22' E 001°35'1111.2
2014-Oct-16 20:33N 40°12' E 001°28'1111.0
2014-Oct-16 19:33N 40°02' E 001°22'1111.4
2014-Oct-16 18:33N 39°52' E 001°15'3812.6
2014-Oct-16 15:33N 39°18' E 000°52'2014.3
2014-Oct-16 14:11N 39°01' E 000°40'1014.7
2014-Oct-16 13:31N 38°52' E 000°35'1414.4
2014-Oct-16 12:33N 38°40' E 000°26'1313.2
2014-Oct-16 11:33N 38°29' E 000°17'4413.8
2014-Oct-16 08:20N 37°52' W 000°15'1113.9
2014-Oct-16 07:33N 37°43' W 000°23'1413.6
2014-Oct-16 06:33N 37°32' W 000°32'1413.7
2014-Oct-16 05:33N 37°23' W 000°45'1413.8
2014-Oct-16 04:33N 37°14' W 000°58'21314.2
2014-Oct-15 13:30N 36°00' W 005°08'1819.2
2014-Oct-15 12:33N 35°57' W 005°29'  
2014-Oct-11 16:30N 36°01' W 005°23'22617.4
2014-Oct-11 03:32N 37°17' W 000°58'1919.0
2014-Oct-11 02:32N 37°29' W 000°40'1919.1
2014-Oct-11 01:33N 37°44' W 000°25'10119.0
2014-Oct-10 20:13N 39°10' E 000°42'3618.4
2014-Oct-10 18:16N 39°42' E 001°05'1318.4
2014-Oct-10 17:33N 39°53' E 001°13'1818.5
2014-Oct-10 16:33N 40°09' E 001°24'2118.9
2014-Oct-10 15:28N 40°27' E 001°37'1718.4
2014-Oct-10 14:33N 40°42' E 001°48'1919.0
2014-Oct-10 13:33N 40°59' E 002°00'2317.8
2014-Oct-10 12:15N 41°20' E 002°13'3 0.3
2014-Oct-10 04:26N 41°22' E 002°11'1 1.0
2014-Oct-10 03:32N 41°21' E 002°11'9 9.7
2014-Oct-10 02:33N 41°12' E 002°12'1211.2
2014-Oct-10 01:26N 41°01' E 002°03'1112.4
2014-Oct-10 00:33N 40°52' E 001°56'1312.6
2014-Oct-09 23:33N 40°41' E 001°48'1313.0
2014-Oct-09 22:33N 40°29' E 001°40'1312.8
2014-Oct-09 21:33N 40°18' E 001°33'1312.9
2014-Oct-09 20:33N 40°06' E 001°25'1413.8
2014-Oct-09 19:33N 39°54' E 001°17'1414.4
2014-Oct-09 18:33N 39°42' E 001°08'1814.7
2014-Oct-09 17:20N 39°26' E 000°57'1114.5
2014-Oct-09 16:33N 39°16' E 000°50'1414.4
2014-Oct-09 15:33N 39°03' E 000°42'1514.5
2014-Oct-09 14:30N 38°49' E 000°33'1414.5
2014-Oct-09 13:33N 38°37' E 000°24'1414.3
2014-Oct-09 12:32N 38°25' E 000°13'1814.1
2014-Oct-09 11:16N 38°10' E 000°01'1013.6
2014-Oct-09 10:33N 38°02' W 000°06'  
Track history (hours):
 
Tides and Currents Weather Stations Pressure Air Temp Water Temp Dewpoint Dewpoint Depression Visibility Wind Speed Wind Dir Waves Ship Positions

Bouzas

Last reported at 2014-Oct-19 09:33 UTC. Time now 2014-Oct-21 03:51 UTC.
Position N 32°40' W 010°08'.

Length 142 m; draft 5.6 m.

Type: Cargo ship. MMSI: 224029000.

Date/timePositionNaut miles runAvg speedWind from/ knotsBaromVisibWave heightAir tempDewpointWater temp
2014-Oct-19 09:33N 32°40' W 010°08'1918.7
2014-Oct-19 08:34N 32°54' W 009°53'1918.7
2014-Oct-19 07:33N 33°07' W 009°37'6318.6
2014-Oct-19 04:11N 33°52' W 008°44'1218.7
2014-Oct-19 03:34N 34°00' W 008°35'1918.5
2014-Oct-19 02:33N 34°14' W 008°19'1818.4
2014-Oct-19 01:33N 34°26' W 008°03'1818.2
2014-Oct-19 00:33N 34°39' W 007°47'1818.3
2014-Oct-18 23:33N 34°52' W 007°31'1818.2
2014-Oct-18 22:33N 35°05' W 007°16'1918.5
2014-Oct-18 21:33N 35°18' W 007°00'2018.3
2014-Oct-18 20:26N 35°32' W 006°41'2018.7
2014-Oct-18 19:21N 35°43' W 006°21'3918.5
2014-Oct-18 17:13N 35°58' W 005°36'1116.7
2014-Oct-18 16:34N 36°02' W 005°23'19417.4
2014-Oct-18 05:24N 36°55' W 001°30'1719.3
2014-Oct-18 04:32N 37°06' W 001°14'1918.8
2014-Oct-18 03:33N 37°18' W 000°57'1919.4
2014-Oct-18 02:33N 37°30' W 000°39'2019.3
2014-Oct-18 01:32N 37°46' W 000°24'1919.4
2014-Oct-18 00:32N 38°02' W 000°10'2019.6
2014-Oct-17 23:31N 38°19' E 000°03'2019.1
2014-Oct-17 22:27N 38°36' E 000°18'1719.2
2014-Oct-17 21:33N 38°51' E 000°29'1919.0
2014-Oct-17 20:33N 39°08' E 000°41'2019.0
2014-Oct-17 19:32N 39°25' E 000°53'1919.0
2014-Oct-17 18:33N 39°41' E 001°04'1919.0
2014-Oct-17 17:33N 39°58' E 001°16'1919.4
2014-Oct-17 16:33N 40°15' E 001°29'1919.2
2014-Oct-17 15:33N 40°32' E 001°41'1919.0
2014-Oct-17 14:33N 40°48' E 001°53'1919.1
2014-Oct-17 13:33N 41°05' E 002°05'1616.4
2014-Oct-17 12:33N 41°20' E 002°12'2 1.2
2014-Oct-17 11:07N 41°22' E 002°11'0 0.0
2014-Oct-17 04:31N 41°22' E 002°11'8 8.1
2014-Oct-17 03:33N 41°17' E 002°19'1010.0
2014-Oct-17 02:33N 41°11' E 002°09'1110.9
2014-Oct-17 01:33N 41°01' E 002°03'1111.0
2014-Oct-17 00:33N 40°51' E 001°56'1111.3
2014-Oct-16 23:33N 40°41' E 001°49'1111.2
2014-Oct-16 22:33N 40°31' E 001°42'1111.1
2014-Oct-16 21:33N 40°22' E 001°35'1111.2
2014-Oct-16 20:33N 40°12' E 001°28'1111.0
2014-Oct-16 19:33N 40°02' E 001°22'1111.4
2014-Oct-16 18:33N 39°52' E 001°15'3812.6
2014-Oct-16 15:33N 39°18' E 000°52'2014.3
2014-Oct-16 14:11N 39°01' E 000°40'1014.7
2014-Oct-16 13:31N 38°52' E 000°35'1414.4
2014-Oct-16 12:33N 38°40' E 000°26'1313.2
2014-Oct-16 11:33N 38°29' E 000°17'4413.8
2014-Oct-16 08:20N 37°52' W 000°15'1113.9
2014-Oct-16 07:33N 37°43' W 000°23'1413.6
2014-Oct-16 06:33N 37°32' W 000°32'1413.7
2014-Oct-16 05:33N 37°23' W 000°45'1413.8
2014-Oct-16 04:33N 37°14' W 000°58'21314.2
2014-Oct-15 13:30N 36°00' W 005°08'1819.2
2014-Oct-15 12:33N 35°57' W 005°29'  
2014-Oct-11 16:30N 36°01' W 005°23'22617.4
2014-Oct-11 03:32N 37°17' W 000°58'1919.0
2014-Oct-11 02:32N 37°29' W 000°40'1919.1
2014-Oct-11 01:33N 37°44' W 000°25'10119.0
2014-Oct-10 20:13N 39°10' E 000°42'3618.4
2014-Oct-10 18:16N 39°42' E 001°05'1318.4
2014-Oct-10 17:33N 39°53' E 001°13'1818.5
2014-Oct-10 16:33N 40°09' E 001°24'2118.9
2014-Oct-10 15:28N 40°27' E 001°37'1718.4
2014-Oct-10 14:33N 40°42' E 001°48'1919.0
2014-Oct-10 13:33N 40°59' E 002°00'2317.8
2014-Oct-10 12:15N 41°20' E 002°13'3 0.3
2014-Oct-10 04:26N 41°22' E 002°11'1 1.0
2014-Oct-10 03:32N 41°21' E 002°11'9 9.7
2014-Oct-10 02:33N 41°12' E 002°12'1211.2
2014-Oct-10 01:26N 41°01' E 002°03'1112.4
2014-Oct-10 00:33N 40°52' E 001°56'1312.6
2014-Oct-09 23:33N 40°41' E 001°48'1313.0
2014-Oct-09 22:33N 40°29' E 001°40'1312.8
2014-Oct-09 21:33N 40°18' E 001°33'1312.9
2014-Oct-09 20:33N 40°06' E 001°25'1413.8
2014-Oct-09 19:33N 39°54' E 001°17'1414.4
2014-Oct-09 18:33N 39°42' E 001°08'1814.7
2014-Oct-09 17:20N 39°26' E 000°57'1114.5
2014-Oct-09 16:33N 39°16' E 000°50'1414.4
2014-Oct-09 15:33N 39°03' E 000°42'1514.5
2014-Oct-09 14:30N 38°49' E 000°33'1414.5
2014-Oct-09 13:33N 38°37' E 000°24'1414.3
2014-Oct-09 12:32N 38°25' E 000°13'1814.1
2014-Oct-09 11:16N 38°10' E 000°01'1013.6
2014-Oct-09 10:33N 38°02' W 000°06'  

Dump ship's entire track history